Temp
-10 -10 -9 -9 -9 -9 -8 -8 -7 -7 -7 -6 -6 -5 -4 -3 -2 -1 -0 0 1 2 1 1 1 2 2
-12 -11 -10 -10 -10 -9 -9 -9 -8 -8 -8 -7 -7 -6 -6 -5 -4 -4 -3 -2 -1 0 0 1 1 1 1
-13 -12 -12 -12 -11 -11 -10 -10 -10 -10 -9 -9 -8 -8 -7 -7 -7 -6 -6 -5 -3 -2 -0 -1 -0 0 1
-14 -14 -13 -13 -13 -13 -11 -12 -10 -11 -11 -10 -10 -10 -9 -9 -8 -8 -8 -8 -6 -5 -4 -2 -1 -1 1
-15 -15 -14 -14 -14 -14 -13 -13 -12 -12 -12 -11 -11 -11 -11 -11 -11 -10 -10 -10 -9 -8 -6 -5 -4 -3 -1
-15 -15 -15 -15 -15 -15 -14 -14 -13 -13 -14 -12 -13 -12 -12 -12 -12 -12 -12 -11 -11 -10 -8 -7 -6 -5 -3
-16 -16 -16 -16 -16 -15 -15 -15 -14 -13 -15 -13 -14 -14 -14 -14 -14 -14 -13 -13 -12 -12 -10 -9 -7 -6 -5
-17 -16 -16 -17 -17 -17 -16 -15 -15 -14 -16 -15 -14 -15 -15 -16 -15 -15 -14 -14 -14 -13 -12 -10 -9 -8 -6
-17 -17 -16 -16 -17 -17 -17 -16 -15 -14 -15 -15 -14 -16 -17 -16 -16 -16 -16 -15 -15 -14 -13 -12 -10 -9 -8
-16 -16 -16 -16 -17 -17 -17 -17 -16 -15 -16 -16 -15 -17 -17 -16 -16 -16 -17 -16 -16 -15 -14 -13 -12 -10 -9
-16 -16 -16 -16 -16 -17 -17 -17 -17 -17 -17 -17 -16 -17 -17 -17 -17 -17 -17 -17 -17 -15 -15 -14 -13 -11 -9
-17 -17 -17 -16 -17 -17 -17 -17 -17 -17 -17 -18 -18 -18 -18 -18 -17 -17 -17 -17 -17 -16 -16 -15 -14 -12 -11
-18 -17 -17 -17 -17 -17 -17 -17 -17 -17 -17 -17 -18 -18 -18 -18 -18 -18 -18 -17 -17 -17 -16 -16 -15 -13 -11
-19 -18 -18 -18 -18 -18 -17 -17 -17 -17 -17 -17 -18 -18 -18 -18 -18 -18 -18 -18 -18 -17 -17 -16 -16 -15 -13
-19 -19 -19 -18 -18 -18 -18 -18 -17 -17 -17 -17 -18 -18 -18 -18 -18 -18 -18 -18 -18 -17 -17 -16 -15 -15 -14
-20 -20 -19 -19 -19 -18 -18 -18 -18 -18 -18 -18 -18 -18 -18 -18 -18 -18 -18 -18 -18 -17 -17 -16 -15 -15 -14
-21 -20 -20 -20 -19 -19 -19 -19 -18 -18 -18 -18 -18 -18 -18 -18 -18 -18 -18 -18 -18 -17 -17 -17 -16 -14 -14
Height
2982 2984 2985 2983 2984 2984 2984 2984 2985 2986 2987 2989 2990 2991 2993 2997 3001 3005 3012 3020 3025 3031 3039 3048 3058 3063 3073
2969 2972 2973 2974 2974 2974 2975 2975 2975 2975 2974 2973 2974 2976 2976 2977 2980 2986 2989 2996 3004 3010 3016 3027 3033 3045 3051
2956 2959 2961 2962 2963 2964 2964 2962 2963 2963 2963 2963 2961 2960 2960 2960 2961 2964 2969 2974 2980 2985 2994 3001 3010 3021 3032
2945 2946 2948 2952 2950 2950 2951 2950 2952 2950 2949 2948 2948 2947 2947 2946 2946 2946 2947 2952 2958 2964 2971 2979 2986 2998 3009
2937 2935 2938 2939 2940 2939 2938 2938 2941 2938 2937 2937 2933 2932 2933 2931 2930 2931 2931 2933 2937 2942 2948 2955 2962 2972 2982
2928 2927 2928 2928 2929 2928 2927 2925 2925 2927 2922 2925 2920 2918 2917 2915 2914 2913 2913 2915 2917 2921 2926 2933 2940 2948 2958
2918 2919 2918 2918 2917 2917 2917 2913 2912 2913 2908 2907 2907 2904 2905 2901 2900 2898 2897 2898 2899 2902 2905 2911 2918 2927 2935
2909 2907 2907 2907 2906 2906 2905 2902 2900 2899 2896 2893 2895 2891 2892 2889 2888 2886 2883 2882 2882 2884 2886 2890 2897 2904 2912
2899 2897 2897 2896 2896 2894 2891 2889 2885 2885 2884 2882 2883 2879 2878 2876 2875 2872 2869 2867 2866 2868 2871 2874 2879 2886 2891
2887 2887 2887 2886 2885 2882 2880 2875 2873 2868 2874 2871 2868 2868 2861 2863 2861 2859 2856 2854 2853 2853 2855 2859 2863 2867 2873
2875 2875 2875 2874 2872 2871 2870 2866 2863 2859 2863 2859 2855 2854 2851 2849 2848 2846 2843 2841 2839 2839 2841 2845 2848 2853 2858
2863 2863 2862 2862 2861 2859 2858 2855 2853 2850 2851 2849 2844 2843 2840 2837 2833 2833 2831 2829 2826 2827 2829 2832 2834 2839 2843
2851 2851 2851 2849 2848 2848 2846 2844 2842 2841 2839 2837 2834 2833 2831 2827 2823 2821 2819 2818 2815 2816 2818 2820 2823 2826 2829
2840 2840 2840 2839 2838 2837 2835 2834 2830 2830 2828 2825 2823 2822 2819 2817 2815 2810 2811 2808 2809 2808 2809 2810 2813 2815 2817
2830 2830 2830 2829 2828 2827 2824 2822 2820 2818 2816 2815 2813 2811 2809 2808 2804 2802 2801 2800 2800 2801 2801 2800 2802 2805 2807
2822 2821 2820 2819 2818 2818 2815 2813 2810 2809 2806 2804 2802 2800 2799 2797 2797 2795 2794 2793 2793 2793 2792 2790 2792 2796 2797
2815 2814 2812 2811 2809 2808 2807 2804 2802 2799 2797 2795 2793 2791 2788 2785 2789 2788 2786 2785 2784 2783 2783 2782 2781 2784 2787
Wind_Speed
29 30 30 34 33 36 38 41 43 46 48 50 54 58 62 65 68 72 73 75 80 82 80 83 82 69 77
31 29 31 32 34 37 37 39 42 43 47 51 54 56 60 65 68 69 73 74 76 82 83 82 85 88 79
35 32 32 32 33 34 36 39 40 43 45 48 52 56 59 63 67 70 71 72 75 77 84 85 85 88 84
38 36 35 31 34 34 37 38 40 42 45 47 49 53 56 60 65 67 69 70 74 76 75 82 85 87 91
37 38 36 35 32 33 36 36 38 40 43 45 50 51 52 55 59 63 65 67 68 72 76 75 79 84 93
36 37 36 36 33 34 35 37 39 38 43 45 47 50 51 52 54 58 61 63 65 68 73 74 74 75 86
38 38 39 39 39 38 37 39 41 40 43 45 44 47 46 48 50 53 56 59 62 64 69 71 71 71 75
39 42 42 41 42 42 42 43 45 45 43 45 44 44 42 43 45 49 51 56 59 59 64 68 69 69 73
38 41 41 42 41 42 44 46 50 48 45 45 44 44 43 45 45 45 48 51 54 56 59 61 64 66 71
40 39 39 40 40 40 41 46 47 51 45 47 46 41 46 42 41 40 43 45 46 49 53 54 55 62 65
38 37 37 37 38 37 38 42 44 46 44 44 46 43 44 45 42 41 41 40 43 44 46 45 51 54 58
39 37 36 36 35 35 35 37 39 41 40 40 44 46 46 48 48 45 43 38 40 42 42 43 46 49 51
36 35 33 33 33 33 34 35 37 37 37 38 40 41 46 48 49 45 37 29 29 38 42 42 43 44 48
33 31 30 31 30 30 32 32 35 34 33 34 37 41 41 43 41 37 24 28 23 29 37 39 41 42 44
28 27 27 28 27 28 29 31 33 32 31 30 32 33 37 37 38 36 27 25 25 26 28 35 40 44 43
24 25 25 26 26 26 28 30 31 30 31 30 30 30 31 32 32 30 33 36 33 30 30 33 35 36 45
23 23 24 24 25 25 27 28 29 29 30 30 29 32 35 37 33 32 31 29 29 33 32 33 34 33 32
Wind_Direction
267 257 255 261 265 269 272 274 275 277 277 276 275 273 270 266 264 260 254 247 246 246 242 238 233 236 236
268 261 258 258 263 267 270 271 273 276 278 279 278 277 275 272 268 264 261 257 249 245 245 241 236 234 237
273 269 266 266 268 270 272 275 278 278 278 279 280 279 277 275 272 269 263 260 256 250 244 243 239 234 233
274 275 273 273 277 280 276 279 278 280 283 283 281 277 275 274 272 270 268 263 257 254 252 245 242 236 228
273 277 278 278 279 279 282 282 280 282 279 279 279 278 277 276 275 272 269 266 261 254 252 249 245 239 234
272 276 278 281 282 283 285 284 283 278 280 276 279 278 279 279 278 274 270 264 259 253 249 248 248 244 239
275 276 278 282 285 285 286 285 282 282 284 283 283 283 283 281 278 276 272 265 260 254 248 246 245 244 242
273 275 277 281 283 286 284 282 281 282 287 290 286 284 284 284 281 277 273 267 262 255 250 245 243 242 240
269 271 274 277 279 279 280 282 280 279 285 287 288 287 285 281 280 278 273 267 262 257 252 247 244 242 241
268 271 274 275 277 276 278 278 280 282 285 285 288 286 284 283 284 280 274 269 263 258 253 248 248 245 244
275 274 274 274 274 273 272 274 277 278 283 284 286 282 281 289 289 288 288 271 260 253 248 246 246 246 245
277 276 275 273 275 274 273 274 276 279 280 276 273 275 280 283 288 290 289 278 261 251 245 240 243 243 244
276 275 275 275 276 276 275 274 276 280 279 276 268 268 270 277 285 289 287 273 260 252 243 243 244 246 242
275 275 274 274 275 276 277 277 278 281 282 275 267 264 266 275 284 284 277 280 261 252 251 250 243 247 245
276 276 277 278 279 280 283 283 283 286 286 277 268 270 267 272 274 276 274 277 272 267 260 253 249 243 245
277 279 281 282 283 282 284 285 286 286 287 288 274 267 266 271 270 274 272 276 278 272 267 263 254 251 248
280 281 283 284 286 287 286 286 286 287 286 287 285 272 268 268 267 272 275 276 274 270 268 269 268 255 249